"Period start","avg(HW err(1)/warn(2) (#))","avg(Visibility (m))","avg(Weather code (#))","avg(Precip intensity (mm/h))","min(HW err(1)/warn(2) (#))","max(HW err(1)/warn(2) (#))","std(HW err(1)/warn(2) (#))","med(HW err(1)/warn(2) (#))","min(Visibility (m))","max(Visibility (m))","std(Visibility (m))","med(Visibility (m))","min(Weather code (#))","max(Weather code (#))","std(Weather code (#))","med(Weather code (#))","min(Precip intensity (mm/h))","max(Precip intensity (mm/h))","std(Precip intensity (mm/h))","med(Precip intensity (mm/h))"
2013-09-14 00:00:00,2,50000,0,0.00,2,2,0,2,50000,50000,0,50000,0,0,0,0,0.00,0.00,0.00,0.00
2013-09-14 00:10:00,2,50000,0,0.00,2,2,0,2,50000,50000,0,50000,0,0,0,0,0.00,0.00,0.00,0.00
2013-09-14 00:20:00,2,49593,0,0.00,2,2,0,2,46843,50000,956,50000,0,0,0,0,0.00,0.00,0.00,0.00
2013-09-14 00:30:00,2,49922,0,0.00,2,2,0,2,49258,50000,222,50000,0,0,0,0,0.00,0.00,0.00,0.00
2013-09-14 00:40:00,2,49080,0,0.00,2,2,0,2,43494,50000,2001,50000,0,0,0,0,0.00,0.00,0.00,0.00
2013-09-14 00:50:00,2,49813,0,0.00,2,2,0,2,48711,50000,406,50000,0,0,0,0,0.00,0.00,0.00,0.00
2013-09-14 01:00:00,2,49096,0,0.00,2,2,0,2,43942,50000,1793,50000,0,0,0,0,0.00,0.00,0.00,0.00
2013-09-14 01:10:00,2,49918,0,0.00,2,2,0,2,49275,50000,216,50000,0,0,0,0,0.00,0.00,0.00,0.00
2013-09-14 01:20:00,2,48818,0,0.00,2,2,0,2,45639,50000,1539,49958,0,0,0,0,0.00,0.00,0.00,0.00
2013-09-14 01:30:00,2,49565,0,0.00,2,2,0,2,47551,50000,879,50000,0,0,0,0,0.00,0.00,0.00,0.00
2013-09-14 01:40:00,2,49665,0,0.00,2,2,0,2,47221,50000,832,50000,0,0,0,0,0.00,0.00,0.00,0.00
2013-09-14 01:50:00,2,49790,0,0.00,2,2,0,2,47895,50000,632,50000,0,0,0,0,0.00,0.00,0.00,0.00
2013-09-14 02:00:00,2,48786,0,0.00,2,2,0,2,44360,50000,1939,50000,0,0,0,0,0.00,0.00,0.00,0.00
2013-09-14 02:10:00,2,49934,0,0.00,2,2,0,2,49339,50000,198,50000,0,0,0,0,0.00,0.00,0.00,0.00
2013-09-14 02:20:00,2,49967,0,0.00,2,2,0,2,49669,50000,99,50000,0,0,0,0,0.00,0.00,0.00,0.00
2013-09-14 02:30:00,2,50000,0,0.00,2,2,0,2,50000,50000,0,50000,0,0,0,0,0.00,0.00,0.00,0.00
2013-09-14 02:40:00,2,50000,0,0.00,2,2,0,2,50000,50000,0,50000,0,0,0,0,0.00,0.00,0.00,0.00
2013-09-14 02:50:00,2,49152,0,0.00,2,2,0,2,46101,50000,1237,50000,0,0,0,0,0.00,0.00,0.00,0.00
2013-09-14 03:00:00,2,49007,0,0.00,2,2,0,2,43328,50000,2091,50000,0,0,0,0,0.00,0.00,0.00,0.00
2013-09-14 03:10:00,2,49820,0,0.00,2,2,0,2,48199,50000,540,50000,0,0,0,0,0.00,0.00,0.00,0.00
2013-09-14 03:20:00,2,49134,0,0.00,2,2,0,2,42525,50000,2231,50000,0,0,0,0,0.00,0.00,0.00,0.00
2013-09-14 03:30:00,2,49137,0,0.00,2,2,0,2,44842,50000,1767,50000,0,0,0,0,0.00,0.00,0.00,0.00
2013-09-14 03:40:00,2,49514,0,0.00,2,2,0,2,46162,50000,1139,50000,0,0,0,0,0.00,0.00,0.00,0.00
2013-09-14 03:50:00,2,49100,0,0.00,2,2,0,2,45462,50000,1550,50000,0,0,0,0,0.00,0.00,0.00,0.00
2013-09-14 04:00:00,2,49832,0,0.00,2,2,0,2,48983,50000,346,50000,0,0,0,0,0.00,0.00,0.00,0.00
2013-09-14 04:10:00,2,50000,0,0.00,2,2,0,2,50000,50000,0,50000,0,0,0,0,0.00,0.00,0.00,0.00
2013-09-14 04:20:00,2,49801,0,0.00,2,2,0,2,48916,50000,400,50000,0,0,0,0,0.00,0.00,0.00,0.00
2013-09-14 04:30:00,2,49936,0,0.00,2,2,0,2,49356,50000,193,50000,0,0,0,0,0.00,0.00,0.00,0.00
2013-09-14 04:40:00,2,49174,0,0.00,2,2,0,2,45468,50000,1470,50000,0,0,0,0,0.00,0.00,0.00,0.00
2013-09-14 04:50:00,2,49874,0,0.00,2,2,0,2,48867,50000,338,50000,0,0,0,0,0.00,0.00,0.00,0.00
2013-09-14 05:00:00,2,50000,0,0.00,2,2,0,2,50000,50000,0,50000,0,0,0,0,0.00,0.00,0.00,0.00
2013-09-14 05:10:00,2,49646,0,0.00,2,2,0,2,46628,50000,1007,50000,0,0,0,0,0.00,0.00,0.00,0.00
2013-09-14 05:20:00,2,50000,0,0.00,2,2,0,2,50000,50000,0,50000,0,0,0,0,0.00,0.00,0.00,0.00
2013-09-14 05:30:00,2,50000,0,0.00,2,2,0,2,50000,50000,0,50000,0,0,0,0,0.00,0.00,0.00,0.00
2013-09-14 05:40:00,2,50000,0,0.00,2,2,0,2,50000,50000,0,50000,0,0,0,0,0.00,0.00,0.00,0.00
2013-09-14 05:50:00,2,50000,0,0.00,2,2,0,2,50000,50000,0,50000,0,0,0,0,0.00,0.00,0.00,0.00
2013-09-14 06:00:00,2,49915,0,0.00,2,2,0,2,49152,50000,254,50000,0,0,0,0,0.00,0.00,0.00,0.00
2013-09-14 06:10:00,2,49582,0,0.00,2,2,0,2,46152,50000,1148,50000,0,0,0,0,0.00,0.00,0.00,0.00
2013-09-14 06:20:00,2,49603,0,0.00,2,2,0,2,46029,50000,1191,50000,0,0,0,0,0.00,0.00,0.00,0.00
2013-09-14 06:30:00,2,50000,0,0.00,2,2,0,2,50000,50000,0,50000,0,0,0,0,0.00,0.00,0.00,0.00
2013-09-14 06:40:00,2,50000,0,0.00,2,2,0,2,50000,50000,0,50000,0,0,0,0,0.00,0.00,0.00,0.00
2013-09-14 06:50:00,2,49959,0,0.00,2,2,0,2,49746,50000,85,50000,0,0,0,0,0.00,0.00,0.00,0.00
2013-09-14 07:00:00,2,49323,0,0.00,2,2,0,2,45695,50000,1352,50000,0,0,0,0,0.00,0.00,0.00,0.00
2013-09-14 07:10:00,2,50000,0,0.00,2,2,0,2,50000,50000,0,50000,0,0,0,0,0.00,0.00,0.00,0.00
2013-09-14 07:20:00,2,50000,0,0.00,2,2,0,2,50000,50000,0,50000,0,0,0,0,0.00,0.00,0.00,0.00
2013-09-14 07:30:00,2,50000,0,0.00,2,2,0,2,50000,50000,0,50000,0,0,0,0,0.00,0.00,0.00,0.00
2013-09-14 07:40:00,2,50000,0,0.00,2,2,0,2,50000,50000,0,50000,0,0,0,0,0.00,0.00,0.00,0.00
2013-09-14 07:50:00,2,50000,0,0.00,2,2,0,2,50000,50000,0,50000,0,0,0,0,0.00,0.00,0.00,0.00
2013-09-14 08:00:00,2,50000,0,0.00,2,2,0,2,50000,50000,0,50000,0,0,0,0,0.00,0.00,0.00,0.00
2013-09-14 08:10:00,2,49307,0,0.00,2,2,0,2,45101,50000,1492,50000,0,0,0,0,0.00,0.00,0.00,0.00
2013-09-14 08:20:00,2,50000,0,0.00,2,2,0,2,50000,50000,0,50000,0,0,0,0,0.00,0.00,0.00,0.00
2013-09-14 08:30:00,2,50000,0,0.00,2,2,0,2,50000,50000,0,50000,0,0,0,0,0.00,0.00,0.00,0.00
2013-09-14 08:40:00,2,49854,0,0.00,2,2,0,2,48538,50000,439,50000,0,0,0,0,0.00,0.00,0.00,0.00
2013-09-14 08:50:00,2,50000,0,0.00,2,2,0,2,50000,50000,0,50000,0,0,0,0,0.00,0.00,0.00,0.00
2013-09-14 09:00:00,2,49978,0,0.00,2,2,0,2,49775,50000,68,50000,0,0,0,0,0.00,0.00,0.00,0.00
2013-09-14 09:10:00,2,50000,0,0.00,2,2,0,2,50000,50000,0,50000,0,0,0,0,0.00,0.00,0.00,0.00
2013-09-14 09:20:00,2,50000,0,0.00,2,2,0,2,50000,50000,0,50000,0,0,0,0,0.00,0.00,0.00,0.00
2013-09-14 09:30:00,2,50000,0,0.00,2,2,0,2,50000,50000,0,50000,0,0,0,0,0.00,0.00,0.00,0.00
2013-09-14 09:40:00,2,50000,0,0.00,2,2,0,2,50000,50000,0,50000,0,0,0,0,0.00,0.00,0.00,0.00
2013-09-14 09:50:00,2,50000,0,0.00,2,2,0,2,50000,50000,0,50000,0,0,0,0,0.00,0.00,0.00,0.00
2013-09-14 10:00:00,2,50000,0,0.00,2,2,0,2,50000,50000,0,50000,0,0,0,0,0.00,0.00,0.00,0.00
2013-09-14 10:10:00,2,50000,0,0.00,2,2,0,2,50000,50000,0,50000,0,0,0,0,0.00,0.00,0.00,0.00
2013-09-14 10:20:00,2,50000,0,0.00,2,2,0,2,50000,50000,0,50000,0,0,0,0,0.00,0.00,0.00,0.00
2013-09-14 10:30:00,2,50000,0,0.00,2,2,0,2,50000,50000,0,50000,0,0,0,0,0.00,0.00,0.00,0.00
2013-09-14 10:40:00,2,50000,0,0.00,2,2,0,2,50000,50000,0,50000,0,0,0,0,0.00,0.00,0.00,0.00
2013-09-14 10:50:00,2,50000,0,0.00,2,2,0,2,50000,50000,0,50000,0,0,0,0,0.00,0.00,0.00,0.00
2013-09-14 11:00:00,2,50000,0,0.00,2,2,0,2,50000,50000,0,50000,0,0,0,0,0.00,0.00,0.00,0.00
2013-09-14 11:10:00,2,49777,0,0.00,2,2,0,2,47772,50000,668,50000,0,0,0,0,0.00,0.00,0.00,0.00
2013-09-14 11:20:00,2,50000,0,0.00,2,2,0,2,50000,50000,0,50000,0,0,0,0,0.00,0.00,0.00,0.00
2013-09-14 11:30:00,2,49997,0,0.00,2,2,0,2,49974,50000,8,50000,0,0,0,0,0.00,0.00,0.00,0.00
2013-09-14 11:40:00,2,50000,0,0.00,2,2,0,2,50000,50000,0,50000,0,0,0,0,0.00,0.00,0.00,0.00
2013-09-14 11:50:00,2,49925,0,0.00,2,2,0,2,49408,50000,179,50000,0,0,0,0,0.00,0.00,0.00,0.00
2013-09-14 12:00:00,2,50000,0,0.00,2,2,0,2,50000,50000,0,50000,0,0,0,0,0.00,0.00,0.00,0.00
2013-09-14 12:10:00,2,50000,0,0.00,2,2,0,2,50000,50000,0,50000,0,0,0,0,0.00,0.00,0.00,0.00
2013-09-14 12:20:00,2,50000,0,0.00,2,2,0,2,50000,50000,0,50000,0,0,0,0,0.00,0.00,0.00,0.00
2013-09-14 12:30:00,2,50000,0,0.00,2,2,0,2,50000,50000,0,50000,0,0,0,0,0.00,0.00,0.00,0.00
2013-09-14 12:40:00,2,50000,0,0.00,2,2,0,2,50000,50000,0,50000,0,0,0,0,0.00,0.00,0.00,0.00
2013-09-14 12:50:00,2,50000,0,0.00,2,2,0,2,50000,50000,0,50000,0,0,0,0,0.00,0.00,0.00,0.00
2013-09-14 13:00:00,2,50000,0,0.00,2,2,0,2,50000,50000,0,50000,0,0,0,0,0.00,0.00,0.00,0.00
2013-09-14 13:10:00,2,50000,0,0.00,2,2,0,2,50000,50000,0,50000,0,0,0,0,0.00,0.00,0.00,0.00
2013-09-14 13:20:00,2,50000,0,0.00,2,2,0,2,50000,50000,0,50000,0,0,0,0,0.00,0.00,0.00,0.00
2013-09-14 13:30:00,2,50000,0,0.00,2,2,0,2,50000,50000,0,50000,0,0,0,0,0.00,0.00,0.00,0.00
2013-09-14 13:40:00,2,50000,0,0.00,2,2,0,2,50000,50000,0,50000,0,0,0,0,0.00,0.00,0.00,0.00
2013-09-14 13:50:00,2,50000,0,0.00,2,2,0,2,50000,50000,0,50000,0,0,0,0,0.00,0.00,0.00,0.00
2013-09-14 14:00:00,2,50000,0,0.00,2,2,0,2,50000,50000,0,50000,0,0,0,0,0.00,0.00,0.00,0.00
2013-09-14 14:10:00,2,50000,0,0.00,2,2,0,2,50000,50000,0,50000,0,0,0,0,0.00,0.00,0.00,0.00
2013-09-14 14:20:00,2,50000,0,0.00,2,2,0,2,50000,50000,0,50000,0,0,0,0,0.00,0.00,0.00,0.00
2013-09-14 14:30:00,2,50000,0,0.00,2,2,0,2,50000,50000,0,50000,0,0,0,0,0.00,0.00,0.00,0.00
2013-09-14 14:40:00,2,50000,0,0.00,2,2,0,2,50000,50000,0,50000,0,0,0,0,0.00,0.00,0.00,0.00
2013-09-14 14:50:00,2,50000,0,0.00,2,2,0,2,50000,50000,0,50000,0,0,0,0,0.00,0.00,0.00,0.00
2013-09-14 15:00:00,2,50000,0,0.00,2,2,0,2,50000,50000,0,50000,0,0,0,0,0.00,0.00,0.00,0.00
2013-09-14 15:10:00,2,50000,0,0.00,2,2,0,2,50000,50000,0,50000,0,0,0,0,0.00,0.00,0.00,0.00
2013-09-14 15:20:00,2,50000,0,0.00,2,2,0,2,50000,50000,0,50000,0,0,0,0,0.00,0.00,0.00,0.00
2013-09-14 15:30:00,2,50000,0,0.00,2,2,0,2,50000,50000,0,50000,0,0,0,0,0.00,0.00,0.00,0.00
2013-09-14 15:40:00,2,49997,0,0.00,2,2,0,2,49968,50000,10,50000,0,0,0,0,0.00,0.00,0.00,0.00
2013-09-14 15:50:00,2,50000,0,0.00,2,2,0,2,50000,50000,0,50000,0,0,0,0,0.00,0.00,0.00,0.00
2013-09-14 16:00:00,2,50000,0,0.00,2,2,0,2,50000,50000,0,50000,0,0,0,0,0.00,0.00,0.00,0.00
2013-09-14 16:10:00,2,50000,0,0.00,2,2,0,2,50000,50000,0,50000,0,0,0,0,0.00,0.00,0.00,0.00
2013-09-14 16:20:00,2,50000,0,0.00,2,2,0,2,50000,50000,0,50000,0,0,0,0,0.00,0.00,0.00,0.00
2013-09-14 16:30:00,2,50000,0,0.00,2,2,0,2,50000,50000,0,50000,0,0,0,0,0.00,0.00,0.00,0.00
2013-09-14 16:40:00,2,50000,0,0.00,2,2,0,2,50000,50000,0,50000,0,0,0,0,0.00,0.00,0.00,0.00
2013-09-14 16:50:00,2,50000,0,0.00,2,2,0,2,50000,50000,0,50000,0,0,0,0,0.00,0.00,0.00,0.00
2013-09-14 17:00:00,2,50000,0,0.00,2,2,0,2,50000,50000,0,50000,0,0,0,0,0.00,0.00,0.00,0.00
2013-09-14 17:10:00,2,50000,0,0.00,2,2,0,2,50000,50000,0,50000,0,0,0,0,0.00,0.00,0.00,0.00
2013-09-14 17:20:00,2,50000,0,0.00,2,2,0,2,50000,50000,0,50000,0,0,0,0,0.00,0.00,0.00,0.00
2013-09-14 17:30:00,2,50000,0,0.00,2,2,0,2,50000,50000,0,50000,0,0,0,0,0.00,0.00,0.00,0.00
2013-09-14 17:40:00,2,50000,0,0.00,2,2,0,2,50000,50000,0,50000,0,0,0,0,0.00,0.00,0.00,0.00
2013-09-14 17:50:00,2,50000,0,0.00,2,2,0,2,50000,50000,0,50000,0,0,0,0,0.00,0.00,0.00,0.00
2013-09-14 18:00:00,2,50000,0,0.00,2,2,0,2,50000,50000,0,50000,0,0,0,0,0.00,0.00,0.00,0.00
2013-09-14 18:10:00,2,50000,0,0.00,2,2,0,2,50000,50000,0,50000,0,0,0,0,0.00,0.00,0.00,0.00
2013-09-14 18:20:00,2,50000,0,0.00,2,2,0,2,50000,50000,0,50000,0,0,0,0,0.00,0.00,0.00,0.00
2013-09-14 18:30:00,2,50000,0,0.00,2,2,0,2,50000,50000,0,50000,0,0,0,0,0.00,0.00,0.00,0.00
2013-09-14 18:40:00,2,50000,0,0.00,2,2,0,2,50000,50000,0,50000,0,0,0,0,0.00,0.00,0.00,0.00
2013-09-14 18:50:00,2,50000,0,0.00,2,2,0,2,50000,50000,0,50000,0,0,0,0,0.00,0.00,0.00,0.00
2013-09-14 19:00:00,2,50000,0,0.00,2,2,0,2,50000,50000,0,50000,0,0,0,0,0.00,0.00,0.00,0.00
2013-09-14 19:10:00,2,50000,0,0.00,2,2,0,2,50000,50000,0,50000,0,0,0,0,0.00,0.00,0.00,0.00
2013-09-14 19:20:00,2,50000,0,0.00,2,2,0,2,50000,50000,0,50000,0,0,0,0,0.00,0.00,0.00,0.00
2013-09-14 19:30:00,2,50000,0,0.00,2,2,0,2,50000,50000,0,50000,0,0,0,0,0.00,0.00,0.00,0.00
2013-09-14 19:40:00,2,50000,0,0.00,2,2,0,2,50000,50000,0,50000,0,0,0,0,0.00,0.00,0.00,0.00
2013-09-14 19:50:00,2,50000,0,0.00,2,2,0,2,50000,50000,0,50000,0,0,0,0,0.00,0.00,0.00,0.00
2013-09-14 20:00:00,2,50000,0,0.00,2,2,0,2,50000,50000,0,50000,0,0,0,0,0.00,0.00,0.00,0.00
2013-09-14 20:10:00,2,50000,0,0.00,2,2,0,2,50000,50000,0,50000,0,0,0,0,0.00,0.00,0.00,0.00
2013-09-14 20:20:00,2,50000,0,0.00,2,2,0,2,50000,50000,0,50000,0,0,0,0,0.00,0.00,0.00,0.00
2013-09-14 20:30:00,2,50000,0,0.00,2,2,0,2,50000,50000,0,50000,0,0,0,0,0.00,0.00,0.00,0.00
2013-09-14 20:40:00,2,50000,0,0.00,2,2,0,2,50000,50000,0,50000,0,0,0,0,0.00,0.00,0.00,0.00
2013-09-14 20:50:00,2,49761,0,0.00,2,2,0,2,47613,50000,716,50000,0,0,0,0,0.00,0.00,0.00,0.00
2013-09-14 21:00:00,2,48253,0,0.00,2,2,0,2,45161,50000,1709,48902,0,0,0,0,0.00,0.00,0.00,0.00
2013-09-14 21:10:00,2,40887,0,0.00,2,2,0,2,15569,50000,13767,50000,0,0,0,0,0.00,0.00,0.00,0.00
2013-09-14 21:20:00,2,19633,0,0.00,2,2,0,2,6108,40992,12285,14088,0,0,0,0,0.00,0.00,0.00,0.00
2013-09-14 21:30:00,2,6424,7,0.00,2,2,0,2,3281,14512,3233,5736,0,10,5,10,0.00,0.00,0.00,0.00
2013-09-14 21:40:00,2,2863,10,0.00,2,2,0,2,1981,3976,670,2568,10,10,0,10,0.00,0.00,0.00,0.00
2013-09-14 21:50:00,2,4870,19,0.00,2,2,0,2,2500,8664,2270,3898,10,41,14,10,0.00,0.00,0.00,0.00
2013-09-14 22:00:00,2,18239,10,0.00,2,2,0,2,7024,41254,9990,16648,10,10,0,10,0.00,0.00,0.00,0.00
2013-09-14 22:10:00,2,29320,0,0.00,2,2,0,2,16543,44367,8402,29592,0,0,0,0,0.00,0.00,0.00,0.00
2013-09-14 22:20:00,2,45202,0,0.00,2,2,0,2,30017,50000,7475,49718,0,0,0,0,0.00,0.00,0.00,0.00
2013-09-14 22:30:00,2,18880,0,0.00,2,2,0,2,6413,28807,7292,19505,0,0,0,0,0.00,0.00,0.00,0.00
2013-09-14 22:40:00,2,8300,2,0.00,2,2,0,2,5482,11650,2101,8164,0,10,4,0,0.00,0.00,0.00,0.00
2013-09-14 22:50:00,2,9690,10,0.00,2,2,0,2,4726,16734,3402,8964,10,10,0,10,0.00,0.00,0.00,0.00
2013-09-14 23:00:00,2,8872,10,0.00,2,2,0,2,2792,20054,5422,7542,10,10,0,10,0.00,0.00,0.00,0.00
2013-09-14 23:10:00,2,2998,49,0.04,2,2,0,2,1468,7543,1687,2218,10,77,25,41,0.00,0.15,0.04,0.05
2013-09-14 23:20:00,2,6373,77,0.02,2,2,0,2,1786,14846,4759,4096,77,77,0,77,0.00,0.10,0.03,0.00
2013-09-14 23:30:00,2,1915,77,0.13,2,2,0,2,1525,2709,328,1854,77,77,0,77,0.05,0.20,0.06,0.15
2013-09-14 23:40:00,2,2907,70,0.19,2,2,0,2,1353,8408,2191,1888,10,77,20,77,0.00,0.50,0.14,0.17
2013-09-14 23:50:00,2,3484,68,0.05,2,2,0,2,1516,8737,1988,2924,10,77,20,74,0.00,0.15,0.05,0.05
